DLH1KN EDDF-EDDW

Flight info

Callsign DLH1KN
Flight time 0h 39m
Altitude 22000
Route MARUN8S MARUN Y153 WRB N850 NIE Z88 VERED VERED3P
Aircraft A20N/M-SDE2E3FGHIRWXY/LB1

Departure

Time 2026-05-04 05:35
Airport Frankfurt Main Airport (EDDF)

Arrival

Time 2026-05-04 06:15
Airport Bremen Airport (EDDW)
Time Latitude Longitude Altitude Speed Heading
2026-05-04 05:10 50.04753 8.56878 373 ft 0 kts 295°
2026-05-04 05:26 50.04747 8.56898 369 ft 4 kts 294°
2026-05-04 05:26 50.04737 8.56937 373 ft 4 kts 287°
2026-05-04 05:26 50.04733 8.56977 368 ft 4 kts 253°
2026-05-04 05:26 50.04740 8.56996 368 ft 0 kts 205°
2026-05-04 05:28 50.04706 8.56972 368 ft 10 kts 205°
2026-05-04 05:29 50.04629 8.56918 371 ft 14 kts 200°
2026-05-04 05:29 50.04525 8.56883 367 ft 17 kts 194°
2026-05-04 05:29 50.04440 8.56778 371 ft 15 kts 254°
2026-05-04 05:29 50.04401 8.56616 373 ft 17 kts 250°
2026-05-04 05:31 50.03934 8.54667 373 ft 32 kts 249°
2026-05-04 05:31 50.03848 8.54345 371 ft 32 kts 236°
2026-05-04 05:32 50.03753 8.54029 368 ft 33 kts 249°
2026-05-04 05:32 50.03673 8.53692 371 ft 34 kts 251°
2026-05-04 05:32 50.03591 8.53363 372 ft 30 kts 249°
2026-05-04 05:33 50.03469 8.52858 371 ft 20 kts 245°
2026-05-04 05:33 50.03432 8.52721 372 ft 0 kts 251°
2026-05-04 05:33 50.03431 8.52718 371 ft 1 kts 251°
2026-05-04 05:34 50.03422 8.52675 370 ft 8 kts 251°
2026-05-04 05:34 50.03361 8.52594 369 ft 16 kts 187°
2026-05-04 05:34 50.03340 8.52594 369 ft 0 kts 179°
2026-05-04 05:34 50.03288 8.52595 370 ft 27 kts 179°
2026-05-04 05:35 50.02850 8.52601 367 ft 95 kts 179°
2026-05-04 05:35 50.02004 8.52611 369 ft 146 kts 179°
2026-05-04 05:35 50.00906 8.52632 649 ft 165 kts 179°
2026-05-04 05:35 49.99710 8.52665 1136 ft 177 kts 179°
2026-05-04 05:36 49.98454 8.52701 1720 ft 183 kts 183°
2026-05-04 05:36 49.97279 8.52148 2352 ft 181 kts 219°
2026-05-04 05:36 49.96405 8.50639 2705 ft 197 kts 232°
2026-05-04 05:36 49.95534 8.48911 3155 ft 208 kts 231°
2026-05-04 05:37 49.94586 8.47143 3476 ft 218 kts 226°
2026-05-04 05:37 49.93452 8.45494 3924 ft 225 kts 221°
2026-05-04 05:37 49.92236 8.43841 4493 ft 242 kts 222°
2026-05-04 05:38 49.89630 8.40143 6093 ft 258 kts 224°
2026-05-04 05:38 49.88348 8.38195 7149 ft 259 kts 231°
2026-05-04 05:38 49.87513 8.35757 8166 ft 262 kts 255°
2026-05-04 05:38 49.87429 8.32938 9188 ft 268 kts 278°
2026-05-04 05:39 49.88155 8.30243 10169 ft 277 kts 299°
2026-05-04 05:39 49.90419 8.24835 11071 ft 323 kts 300°
2026-05-04 05:39 49.91740 8.21930 11707 ft 337 kts 309°
2026-05-04 05:40 49.95968 8.18610 13431 ft 360 kts 352°
2026-05-04 05:40 49.98483 8.18873 14204 ft 370 kts 12°
2026-05-04 05:40 50.00923 8.20275 14898 ft 379 kts 23°
2026-05-04 05:41 50.03311 8.22078 15607 ft 384 kts 25°
2026-05-04 05:41 50.05727 8.23940 16340 ft 389 kts 25°
2026-05-04 05:41 50.08179 8.25770 17140 ft 392 kts 24°
2026-05-04 05:41 50.10674 8.27572 17850 ft 398 kts 24°
2026-05-04 05:42 50.13206 8.29364 18538 ft 402 kts 23°
2026-05-04 05:42 50.15769 8.31161 19220 ft 406 kts 23°
2026-05-04 05:42 50.18335 8.32957 19852 ft 410 kts 23°
2026-05-04 05:42 50.20910 8.34759 20479 ft 413 kts 23°
2026-05-04 05:43 50.23545 8.36607 21086 ft 418 kts 23°
2026-05-04 05:43 50.26216 8.38484 21695 ft 423 kts 23°
2026-05-04 05:43 50.28957 8.40397 21933 ft 432 kts 21°
2026-05-04 05:45 50.51011 8.52361 21990 ft 499 kts 15°
2026-05-04 05:45 50.54340 8.53931 21990 ft 499 kts 15°
2026-05-04 05:47 50.77738 8.65073 21992 ft 502 kts 15°
2026-05-04 05:47 50.81080 8.66693 21991 ft 502 kts 15°
2026-05-04 05:47 50.84365 8.68616 21990 ft 503 kts 20°
2026-05-04 05:48 50.87608 8.70682 21990 ft 503 kts 20°
2026-05-04 05:48 50.90859 8.72736 21991 ft 503 kts 20°
2026-05-04 05:48 50.94118 8.74793 21991 ft 504 kts 20°
2026-05-04 05:48 50.97367 8.76850 21989 ft 503 kts 20°
2026-05-04 05:49 51.00627 8.78919 22000 ft 503 kts 20°
2026-05-04 05:49 51.03888 8.80994 21993 ft 507 kts 20°
2026-05-04 05:49 51.07155 8.83077 21994 ft 506 kts 20°
2026-05-04 05:49 51.10468 8.85192 21989 ft 506 kts 20°
2026-05-04 05:51 51.33291 8.99859 21981 ft 507 kts 20°
2026-05-04 05:51 51.36538 9.01963 21985 ft 495 kts 20°
2026-05-04 05:52 51.39648 9.03985 21981 ft 471 kts 20°
2026-05-04 05:52 51.42605 9.05910 21984 ft 448 kts 20°
2026-05-04 05:52 51.45428 9.07749 21993 ft 428 kts 20°
2026-05-04 05:52 51.48172 9.09534 21991 ft 428 kts 19°
2026-05-04 05:53 51.51010 9.10997 21981 ft 428 kts 10°
2026-05-04 05:54 51.71508 9.15602 21981 ft 426 kts
2026-05-04 05:55 51.74446 9.16239 21974 ft 426 kts
2026-05-04 05:55 51.77377 9.16874 21976 ft 426 kts
2026-05-04 05:55 51.80313 9.17510 21975 ft 426 kts
2026-05-04 05:55 51.83247 9.18147 21969 ft 426 kts
2026-05-04 05:56 51.86182 9.18786 21968 ft 425 kts
2026-05-04 05:56 51.89119 9.19426 21977 ft 426 kts
2026-05-04 05:56 51.92053 9.20141 21977 ft 426 kts
2026-05-04 05:56 51.94978 9.20919 21975 ft 428 kts
2026-05-04 05:57 51.97920 9.21713 21974 ft 427 kts
2026-05-04 05:57 52.00863 9.22501 21792 ft 429 kts
2026-05-04 05:57 52.03809 9.23281 21262 ft 430 kts
2026-05-04 05:57 52.06749 9.24037 20535 ft 431 kts
2026-05-04 05:58 52.09698 9.24616 19997 ft 425 kts
2026-05-04 05:58 52.12626 9.25107 19431 ft 420 kts
2026-05-04 05:58 52.15508 9.25586 18873 ft 416 kts
2026-05-04 05:58 52.17404 9.25909 18465 ft 414 kts
2026-05-04 05:59 52.21196 9.26576 17720 ft 408 kts
2026-05-04 05:59 52.24002 9.27084 17172 ft 402 kts
2026-05-04 05:59 52.26757 9.27713 16627 ft 398 kts
2026-05-04 05:59 52.29438 9.28441 16096 ft 393 kts
2026-05-04 06:00 52.32123 9.29190 15559 ft 389 kts
2026-05-04 06:00 52.34775 9.29919 15031 ft 385 kts
2026-05-04 06:00 52.37401 9.30622 14507 ft 381 kts
2026-05-04 06:00 52.39996 9.31303 14002 ft 378 kts
2026-05-04 06:01 52.42585 9.31977 13423 ft 375 kts
2026-05-04 06:01 52.45147 9.32644 12912 ft 370 kts
2026-05-04 06:03 52.61389 9.36789 10134 ft 326 kts 357°
2026-05-04 06:03 52.63571 9.36484 10008 ft 305 kts 343°
2026-05-04 06:05 52.76555 9.28839 7593 ft 273 kts 335°
2026-05-04 06:05 52.80095 9.26710 6904 ft 268 kts 336°
2026-05-04 06:05 52.81824 9.25670 6706 ft 259 kts 336°
2026-05-04 06:06 52.83463 9.24688 6583 ft 243 kts 335°
2026-05-04 06:06 52.85030 9.23747 6395 ft 237 kts 335°
2026-05-04 06:06 52.86570 9.22812 6084 ft 236 kts 335°
2026-05-04 06:06 52.88102 9.21883 5743 ft 234 kts 335°
2026-05-04 06:07 52.89629 9.20956 5365 ft 233 kts 335°
2026-05-04 06:07 52.91128 9.20090 5198 ft 221 kts 336°
2026-05-04 06:07 52.92535 9.19319 5058 ft 205 kts 336°
2026-05-04 06:07 52.93868 9.18590 4795 ft 201 kts 336°
2026-05-04 06:08 52.95187 9.17858 4525 ft 199 kts 336°
2026-05-04 06:08 52.96494 9.17125 4242 ft 198 kts 336°
2026-05-04 06:08 52.97776 9.16408 4042 ft 189 kts 336°
2026-05-04 06:08 52.98978 9.15740 3877 ft 178 kts 336°
2026-05-04 06:09 53.00137 9.15089 3666 ft 175 kts 336°
2026-05-04 06:09 53.01287 9.14436 3439 ft 173 kts 335°
2026-05-04 06:11 53.04340 9.02875 2663 ft 161 kts 279°
2026-05-04 06:11 53.04509 9.01060 2463 ft 155 kts 277°
2026-05-04 06:13 53.04902 8.90272 1209 ft 129 kts 271°
2026-05-04 06:14 53.04735 8.81076 124 ft 131 kts 269°
2026-05-04 06:14 53.04702 8.79569 22 ft 125 kts 269°
2026-05-04 06:15 53.04684 8.78562 21 ft 45 kts 267°
2026-05-04 06:15 53.04671 8.78139 18 ft 36 kts 270°
2026-05-04 06:15 53.04666 8.77723 18 ft 36 kts 269°
2026-05-04 06:15 53.04698 8.77469 20 ft 19 kts 329°
2026-05-04 06:16 53.04830 8.77473 21 ft 21 kts 17°
2026-05-04 06:16 53.04957 8.77605 21 ft 22 kts 45°
2026-05-04 06:16 53.05069 8.77805 20 ft 25 kts 46°
2026-05-04 06:16 53.05179 8.78041 20 ft 27 kts 67°
2026-05-04 06:17 53.05159 8.78345 21 ft 25 kts 113°
2026-05-04 06:17 53.05100 8.78479 18 ft 8 kts 132°
2026-05-04 06:17 53.05114 8.78544 19 ft 7 kts 47°
2026-05-04 06:17 53.05142 8.78597 18 ft 0 kts 48°